Regional Weather Roundup
Issued by NWS

Home | Current Version | Previous Version | Graphics & Text | Print | Product List | Glossary On
Versions: 1 2 3 4 5 6 7 8 9 10 11 12 13 14 15 16 17 18 19 20 21 22 23 24 25 26 27 28 29 30 31 32 33 34 35 36 37 38 39 40 41 42 43 44 45 46 47 48 49 50
000
ASUS43 KMKX 281459
RWRWI

WISCONSIN REGIONAL WEATHER ROUNDUP
NATIONAL WEATHER SERVICE MILWAUKEE/SULLIVAN WI
900 AM CST WED JAN 28 2015

NOTE: "FAIR" INDICATES FEW OR NO CLOUDS BELOW 12,000 FEET WITH NO
SIGNIFICANT WEATHER AND/OR OBSTRUCTIONS TO VISIBILITY.

WIZ001-002-006>008-014>016-023>028-281600-
NORTHWEST WISCONSIN

CITY           SKY/WX    TMP DP  RH WIND       PRES   REMARKS
SUPERIOR ARPT  CLOUDY    26  22  86 S5        30.02F WCI  20
ASHLAND        CLOUDY    25  21  85 S3        30.03F
HAYWARD        CLOUDY    24  20  84 SE12G18   30.01F FOG     WCI  13
SIREN          CLOUDY    25  22  88 SE8       30.01S FOG     WCI  17
CUMBERLAND     CLOUDY    23  21  93 SE12      30.02S FOG     WCI  12
RICE LAKE      CLOUDY    24  22  89 SE10G21   30.05F FOG     WCI  14
CHETEK         CLOUDY    24  22  91 SE13      30.05F FOG     WCI  12
LADYSMITH      CLOUDY    25  23  93 SE9       30.07F FOG     WCI  15
EAU CLAIRE     NOT AVBL
MENOMONIE      CLOUDY    26  23  89 SE13G18   30.05F FOG     WCI  15
NEW RICHMOND   CLOUDY    26  23  88 SE9       30.01F FOG     WCI  16
OSCEOLA        CLOUDY    27  25  90 SE12      30.03F WCI  17
$$

WIZ003>005-009-010-017-018-281600-
NORTH CENTRAL WISCONSIN

CITY           SKY/WX    TMP DP  RH WIND       PRES   REMARKS
MANITOWISH WTR CLOUDY    22  22  99 S9        30.04F FOG     WCI  12
ARBOR VITAE    CLOUDY    23  22  93 S9        30.06F FOG     WCI  13
WOODRUFF       CLOUDY    23  22  93 S9        30.06F FOG     WCI  13
RHINELANDER    CLOUDY    22  20  92 S10       30.08F FOG     WCI  11
EAGLE RIVER    CLOUDY    23  20  89 S6        30.07F FOG     WCI  15
LAND O LAKES   CLOUDY    24  22  94 S8        30.07F FOG     WCI  14
PHILLIPS       CLOUDY    22  21  96 SE8       30.05F FOG     WCI  13
TOMAHAWK       CLOUDY    23  21  93 SE6       30.09F FOG     WCI  15
MEDFORD        FOG       23  21  93 SE10      30.07F VSB 1   WCI  12
MERRILL        CLOUDY    24  22  92 S7        30.11F FOG     WCI  16
$$

WIZ029-030-035-036-043>047-281600-
CENTRAL WISCONSIN

CITY           SKY/WX    TMP DP  RH WIND       PRES   REMARKS
WAUSAU         CLOUDY    24  21  88 S14       30.11F FOG     WCI  12
MOSINEE        CLOUDY    25  23  93 SE10G17   30.13F WCI  15
MARSHFIELD     CLOUDY    25  22  88 SE14G22   30.09F FOG     WCI  13
STEVENS POINT  PTSUNNY   23  19  85 SE8       30.15F WCI  13
WAUPACA        PTSUNNY   26  20  77 SE7       30.20F WCI  18
WAUTOMA        NOT AVBL
WISC RAPIDS    CLOUDY    24  20  84 S10G21    30.16S WCI  14
CAMP DOUGLAS   CLOUDY    25  25 100 SE10      30.14S WCI  15
$$

WIZ011>013-019>022-031-037>040-048>050-281600-
NORTHEAST WISCONSIN

CITY           SKY/WX    TMP DP  RH WIND       PRES   REMARKS
ANTIGO         CLOUDY    21  19  91 S10       30.13F WCI   9
SHAWANO        CLOUDY    27  19  73 S3        30.21S
OCONTO         PTSUNNY   21  20  96 MISG      30.23R
STURGEON BAY   MOSUNNY   25  18  74 S7        30.25R WCI  17
GREEN BAY      CLOUDY    23  18  81 S7        30.23S WCI  15
MANITOWOC      NOT AVBL
APPLETON       PTSUNNY   25  18  74 S8        30.22S WCI  16
CLINTONVILLE   CLOUDY    27  19  74 S7        30.21S WCI  19
OSHKOSH        PTSUNNY   23  18  81 S9        30.21F WCI  13
$$

WIZ032>034-041-042-053>061-281600-
SOUTHWEST WISCONSIN

CITY           SKY/WX    TMP DP  RH WIND       PRES   REMARKS
LA CROSSE      CLOUDY    28  23  81 S15       30.10F HAZE    WCI  16
SPARTA         CLOUDY    27  23  86 S10       30.13F FOG     WCI  17
VIROQUA        CLOUDY    25  25 100 S13       30.10S WCI  14
BOSCOBEL       CLOUDY    28  23  81 VRB7      30.17S HAZE    WCI  21
PRAIRIE DU CHI CLOUDY    28  24  86 SE9G16    30.15S FOG     WCI  19
PLATTEVILLE    CLOUDY    27  25  93 SE12      30.17S WCI  17
$$

WIZ056-057-062-063-064-067-068-281600-
SOUTH CENTRAL WISCONSIN

CITY           SKY/WX    TMP DP  RH WIND       PRES   REMARKS
REEDSBURG      CLOUDY    24  22  91 S8        30.16S FOG     WCI  15
BARABOO/DELLS  CLOUDY    24  22  89 S14G20    30.17R FOG     WCI  12
LONE ROCK      NOT AVBL
MINERAL POINT  CLOUDY    28  27  93 S16G22    30.15S FOG     WCI  17
MADISON        CLOUDY    24  19  81 S14       30.20R WCI  12
MIDDLETON      CLOUDY    27  22  82 S13       30.19S WCI  17
WATERTOWN      MOSUNNY   22  19  85 S7        30.21F WCI  14
MONROE         CLOUDY    27  23  86 S15       30.18F WCI  15
JANESVILLE     SUNNY     27  19  74 S12G17    30.22S WCI  16
$$

WIZ051-052-058>065-066-070>072-281600-
SOUTHEAST WISCONSIN

CITY           SKY/WX    TMP DP  RH WIND       PRES   REMARKS
MILWAUKEE      PTSUNNY   27  20  75 S7        30.24F WCI  19
WAUKESHA       MOSUNNY   23  18  80 S5        30.23F WCI  17
MILWAUKEE/TIMM NOT AVBL
RACINE         PTSUNNY   27  21  78 SW6       30.27S WCI  20
BURLINGTON     MOSUNNY   20  19  96 S7        30.24F WCI  11
KENOSHA        MOSUNNY   25  19  78 S10       30.25F WCI  15
FOND DU LAC    PTSUNNY   24  18  77 S10       30.21F WCI  14
SHEBOYGAN      CLOUDY    24  20  84 CALM      30.23F
WEST BEND      PTSUNNY   23  19  86 S6        30.23S WCI  16
JUNEAU         MOSUNNY   21  17  85 SE8       30.22F WCI  11
$$

LSZ147-162-281600-
LAKE SUPERIOR

STATION/POSITION TIME  TEMP    WIND        PRES    WAVE
                       AIR SEA DIR/SP/G            HT/PER
                 (UTC) (F)     (DEG/KT/KT) (MB)    (FT/S)
DEVILS ISLAND    1400   27     170/  7/ 10 1018.6F
PORT WING        1400   24     130/  1/  3 1017.6F
SAXON HARBOR     1400   24        CALM     1017.9F
$$

LMZ867-665-643>646-281600-
LAKE MICHIGAN

STATION/POSITION TIME  TEMP    WIND        PRES    WAVE
                       AIR SEA DIR/SP/G            HT/PER
                 (UTC) (F)     (DEG/KT/KT) (MB)    (FT/S)
NORTHPORT PIER   1406   23     200/  2/  6 1023.7F
SISTER BAY       1243   20        CALM       N/A
KEWAUNEE LAKESHO 1400   27     200/  5/  8 1023.0F
SHEBOYGAN LAKESH 1400   29     200/ 10/ 12 1025.3F
PORT WASHINGTON  1400   26     220/  6/ 11 1025.1S
MILWAUKEE LAKESH 1400   26     210/  9/ 10   N/A
KENOSHA   LAKESH 1400   26     210/  8/ 11 1024.7S
$$

TC  - TEMPERATURE IN CELSIUS
VSB - VISIBILITY IN STATUTE MILES
WCI - WIND CHILL INDEX
HX  - HEAT INDEX




USA.gov is the U.S. government's official web portal to all federal, state and local government web resources and services.